Torna al catalogo

STARLINK-37558

AttivoComunicazioniVLEO
NORAD 69239·PAYLOAD·🇺🇸 United States

Lanciato May 29, 2026 da Cape Canaveral Space Force Station

Loading…

Prossimi Passaggi (prossime 24 ore)

TLE

AggiornatoSource: CelesTrak SupGP

Epoca: Sep 14, 2026, 22:49 UTC

1 69239C 26117B   26257.95118056 -.00038810  00000+0 -11463-2 0  2578
2 69239  53.1571 179.7582 0001225  89.3218 287.6742 15.34419512    15

Traccia STARLINK-37558 in tempo reale con AllMySat

Download on the App Store